This demonstration page uses our WeatherBlox Daily Observations layout. Learn more.

Left ArrowRight Arrow

40.92945, -100.16068

Hourly Observations for February 11, 2021

Temp ( °F °C ) Dew Point ( °F °C ) Humidity (%) Winds ( mph kmh ) Pressure ( in mb ) Visibility ( mi km ) Precip ( " mm )
12:15 am 00:15 Partly Cloudy -2 -18.9 -6 -21.1 83 83 NNE 3 6 30.65 1038 10 16.0934 N/A
12:35 am 00:35 Partly Cloudy -1 -18.5 -5 -20.7 83 83 NNE 3 6 30.65 1038 10 16.0934 N/A
12:55 am 00:55 Partly Cloudy -2 -18.7 -6 -21.1 82 82 NE 3 6 30.66 1038 10 16.0934 N/A
1:15 am 01:15 Mostly Cloudy -3 -19.7 -8 -22.1 81 81 ENE 3 6 30.66 1038 10 16.0934 N/A
1:35 am 01:35 Mostly Cloudy -2 -19 -7 -21.4 81 81 N N/A 30.65 1038 10 16.0934 N/A
1:55 am 01:55 Clear -1 -18.5 -5 -20.8 82 82 N N/A 30.64 1038 10 16.0934 N/A
2:15 am 02:15 Clear -3 -19.4 -7 -21.7 82 82 N N/A 30.65 1038 10 16.0934 N/A
2:35 am 02:35 Partly Cloudy -2 -19.1 -6 -21.1 84 84 N N/A 30.65 1038 10 16.0934 N/A
2:55 am 02:55 Partly Cloudy -3 -19.4 -7 -21.6 83 83 N N/A 30.65 1038 10 16.0934 N/A
3:15 am 03:15 Clear -3 -19.7 -7 -21.6 85 85 N N/A 30.65 1038 10 16.0934 N/A
3:35 am 03:35 Clear -4 -19.8 -7 -21.5 86 86 N N/A 30.64 1038 10 16.0934 N/A
3:55 am 03:55 Clear -3 -19.6 -7 -21.5 85 85 N N/A 30.64 1038 10 16.0934 N/A
4:15 am 04:15 Mostly Cloudy -3 -19.7 -7 -21.8 84 84 N N/A 30.65 1038 10 16.0934 N/A
4:35 am 04:35 Mostly Cloudy -9 -22.8 -14 -25.6 78 78 N N/A 30.69 1039 10 16.0934 N/A
4:55 am 04:55 Partly Cloudy -9 -22.5 -13 -25.1 79 79 N N/A 30.69 1039 10 16.0934 N/A
5:15 am 05:15 Clear -8 -22.1 -12 -24.7 80 80 N N/A 30.68 1039 10 16.0934 N/A
5:35 am 05:35 Clear -6 -21.2 -11 -23.7 80 80 N N/A 30.67 1039 10 16.0934 N/A
5:55 am 05:55 Clear -6 -21.1 -10 -23.6 80 80 N N/A 30.67 1039 10 16.0934 N/A
6:15 am 06:15 Clear -5 -20.6 -9 -22.9 82 82 N N/A 30.66 1038 10 16.0934 N/A
6:35 am 06:35 Clear -5 -20.6 -9 -22.9 82 82 N N/A 30.66 1038 10 16.0934 N/A
6:55 am 06:55 Clear -5 -20.8 -10 -23.3 80 80 N N/A 30.67 1038 10 16.0934 N/A
7:15 am 07:15 Clear -4 -20.1 -9 -22.5 81 81 N N/A 30.66 1038 10 16.0934 N/A
7:35 am 07:35 Partly Cloudy -3 -19.7 -8 -22 82 82 N N/A 30.65 1038 10 16.0934 N/A
7:55 am 07:55 Partly Cloudy -3 -19.6 -8 -22 81 81 N N/A 30.65 1038 10 16.0934 N/A
8:15 am 08:15 Sunny -3 -19.5 -7 -21.9 81 81 N N/A 30.67 1039 10 16.0934 N/A
8:35 am 08:35 Sunny -3 -19.3 -7 -21.8 81 81 N N/A 30.67 1039 10 16.0934 N/A
8:55 am 08:55 Sunny -2 -18.8 -6 -21 83 83 ESE 3 6 30.66 1038 10 16.0934 N/A
9:15 am 09:15 Sunny 1 -17.1 -3 -19.5 82 82 ESE 6 9 30.64 1038 10 16.0934 N/A
9:35 am 09:35 Sunny 2 -16.4 -2 -18.7 83 83 E 8 13 30.63 1037 10 16.0934 N/A
9:55 am 09:55 Partly Cloudy 2 -16.5 -2 -18.8 83 83 E 8 13 30.64 1037 10 16.0934 N/A
10:15 am 10:15 Mostly Cloudy 3 -16.2 -1 -18.5 83 83 E 8 13 30.62 1037 10 16.0934 N/A
10:35 am 10:35 Cloudy 3 -16 -1 -18.4 82 82 E 9 15 30.63 1037 10 16.0934 N/A
10:55 am 10:55 Mostly Cloudy 4 -15.7 -1 -18.2 81 81 ESE 9 15 30.63 1037 10 16.0934 N/A
11:15 am 11:15 Partly Cloudy 4 -15.6 -1 -18.1 81 81 E 8 13 30.61 1037 10 16.0934 N/A
11:35 am 11:35 Mostly Cloudy 4 -15.6 -1 -18.1 81 81 E 9 15 30.61 1037 10 16.0934 N/A
11:55 am 11:55 Cloudy with Haze 4 -15.5 -1 -18.1 81 81 E 7 11 30.61 1037 5 8.0467 N/A
12:15 pm 12:15 Cloudy with Haze 5 -15 N/A 80 80 E 8 13 30.62 1037 1.75 2.816345 N/A
12:35 pm 12:35 Cloudy with Haze 5 -15 -1 -18.4 76 76 NE 8 13 30.61 1037 2.5 4.02335 N/A
12:55 pm 12:55 Cloudy with Haze 6 -14.6 -1 -18.6 72 72 E 6 9 30.6 1036 4 6.43736 N/A
1:15 pm 13:15 Cloudy with Haze 6 -14.5 -2 -18.8 70 70 E 8 13 30.59 1036 5 8.0467 N/A
1:35 pm 13:35 Mostly Cloudy 7 -14 -2 -18.7 68 68 NE 8 13 30.59 1036 10 16.0934 N/A
1:55 pm 13:55 Mostly Cloudy 7 -13.8 -1 -18.6 67 67 NE 10 17 30.56 1035 10 16.0934 N/A
2:15 pm 14:15 Mostly Cloudy with Haze 7 -13.7 -1 -18.5 67 67 ENE 7 11 30.56 1035 5 8.0467 N/A
2:35 pm 14:35 Cloudy 6 -14.2 -2 -18.8 68 68 NE 8 13 30.56 1035 7 11.26538 N/A
2:55 pm 14:55 Partly Cloudy 7 -14.1 -2 -19.1 66 66 NE 7 11 30.56 1035 10 16.0934 N/A
3:15 pm 15:15 Sunny 7 -14.1 -2 -19 67 67 ENE 9 15 30.56 1035 10 16.0934 N/A
3:35 pm 15:35 Sunny 6 -14.2 -2 -19 67 67 NE 8 13 30.57 1035 10 16.0934 N/A
3:55 pm 15:55 Partly Cloudy 6 -14.2 -2 -19 67 67 ENE 8 13 30.57 1035 10 16.0934 N/A
4:15 pm 16:15 Mostly Cloudy 6 -14.2 -2 -18.7 69 69 ENE 9 15 30.57 1035 10 16.0934 N/A
4:35 pm 16:35 Cloudy 6 -14.5 -2 -19 69 69 ENE 7 11 30.58 1036 10 16.0934 N/A
4:55 pm 16:55 Cloudy 6 -14.5 -2 -18.8 70 70 ENE 8 13 30.59 1036 10 16.0934 N/A
5:15 pm 17:15 Cloudy 6 -14.5 -2 -18.7 71 71 ENE 8 13 30.58 1036 10 16.0934 N/A
5:35 pm 17:35 Cloudy 6 -14.6 -1 -18.6 72 72 NE 8 13 30.58 1036 10 16.0934 N/A
5:55 pm 17:55 Mostly Cloudy 5 -15.1 -2 -18.9 73 73 NE 8 13 30.6 1036 10 16.0934 N/A
6:15 pm 18:15 Cloudy 4 -15.5 -2 -19 75 75 NE 7 11 30.6 1036 10 16.0934 N/A
6:35 pm 18:35 Cloudy 4 -15.3 -2 -19 74 74 NE 7 11 30.61 1037 10 16.0934 N/A
6:55 pm 18:55 Cloudy 5 -15.2 -2 -18.9 74 74 NE 7 11 30.62 1037 10 16.0934 N/A
7:15 pm 19:15 Cloudy 4 -15.5 -2 -19 75 75 NE 7 11 30.63 1037 10 16.0934 N/A
7:35 pm 19:35 Mostly Cloudy 3 -16.3 -3 -19.6 76 76 NNE 6 9 30.64 1038 10 16.0934 N/A
7:55 pm 19:55 Mostly Cloudy 2 -16.7 -4 -20 76 76 NNE 6 9 30.66 1038 10 16.0934 N/A
8:15 pm 20:15 Cloudy 1 -17.5 -5 -20.5 78 78 NNE 6 9 30.67 1038 10 16.0934 N/A
8:35 pm 20:35 Cloudy -2 -18.9 -8 -22 77 77 NNE 6 9 30.7 1040 10 16.0934 N/A
8:55 pm 20:55 Mostly Cloudy -3 -19.3 -7 -21.9 80 80 N 6 9 30.72 1040 10 16.0934 N/A
9:15 pm 21:15 Cloudy -3 -19.5 -7 -21.8 82 82 NNE 5 7 30.71 1040 10 16.0934 N/A
9:35 pm 21:35 Mostly Cloudy -1 -18.3 -5 -20.8 81 81 NNE 5 7 30.71 1040 10 16.0934 N/A
9:55 pm 21:55 Partly Cloudy -3 -19.2 -7 -21.6 81 81 NNE 3 6 30.72 1040 10 16.0934 N/A
10:15 pm 22:15 Mostly Cloudy -2 -19 -6 -21.3 82 82 NE 3 6 30.72 1040 10 16.0934 N/A
10:35 pm 22:35 Cloudy -2 -18.8 -6 -21 83 83 ENE 3 6 30.71 1040 10 16.0934 N/A
10:55 pm 22:55 Cloudy with Light Snow -2 -18.7 -6 -21 82 82 N N/A 30.71 1040 10 16.0934 N/A
11:15 pm 23:15 Cloudy -2 -18.7 -6 -20.9 83 83 N N/A 30.72 1040 10 16.0934 N/A
11:35 pm 23:35 Cloudy -1 -18.1 -5 -20.3 83 83 N N/A 30.73 1041 10 16.0934 N/A
11:55 pm 23:55 Cloudy N/A -4 -20 82 82 N N/A 30.73 1041 10 16.0934 N/A

Powered by AerisWeather